STARLINK-33615, 63426

Orbit data source: Space-Track

STARLINK-33615, 63426 is a payload satellite owned by SpaceX/Seattle (US) in LEO that was launched on Mon, 31 Mar 2025 UTC via an FALCON 9 launch vehicle from the Air Force Eastern Test Range (AFETR). Payload-class satellites include a variety of spacecraft equipped with specific instruments for various scientific and technological missions. These include communications satellites like Starlink; space stations such as the ISS; scientific satellites like the Hubble; Earth observation satellites from companies like Planet Labs, Umbra, and HawkEye 360; GPS; miniature CubeSats for education and research; and military/defense satellites.

Loading next visibility...
Identifier
63426, 2025-065AD
Orbit
LEO
Country
Flag of USUS
Related business
Manufacturer
SpaceX/Seattle
Mission
Operational Commercial Communications
Bus & Motor
STARLINK V2MO, Unknown motor
Mass
575 kg wet, ~530 kg dry
Launch date (UTC)
2025-03-31 (1 year ago)
Launch vehicle
FALCON 9
Launch site
Air Force Eastern Test Range (AFETR)
Object type
Payload
Rocket body
Debris
Shape & HBR
Box + 2 Pan, 17.7 m
Radar Cross Section
36.964 m², Large (>1 m²)

Expand to show TLE details & history
Last TLE update: 14 hours ago

TLE from 14 hours ago
0 STARLINK-33615
1 63426U 25065AD  26171.26582528  .00014786  00000-0  54560-3 0  9993
2 63426  43.0084 248.0692 0002478 276.2042  83.8527 15.27588911 68528
Epoch: 2026-06-20T06:22Z
TLE epoch observation values (Epoch: 2026-06-20T06:22:47.304Z)
Latitude
-0.00004°
Longitude
-116.11086°
Altitude
482.617 km
Speed
7.626 km/s
True Right ascension
16h 32m 16s
True Declination
0° 00' 00"
Sunlit
Object was in full shadow at epoch
Visualization orbit readout
Latitude
Unknown
Longitude
Unknown
Altitude
Unknown
Speed
Unknown
Apparent Right ascension
Unknown
Apparent Declination
Unknown
Sunlit
N/A
Visualization observer readout
Local Sidereal Time
07:24:23
Azimuth
Unknown
Elevation
Unknown
Doppler factor
Unknown
Orbital elements
Apogee altitude
486.667 km
Perigee altitude
483.266 km
Semi-major axis
6,863.103 km
Eccentricity
0.00025
Inclination
43.0084°
RAAN
248.0692°
Arg. of periapsis
276.2042°
True anomaly
83.88093°
Mean anomaly
83.8527°
Eccentric anomaly
83.86682°
Mean motion
3.81735 °/min
Orbital period
94.31 mins
BSTAR
0.0005456
Loading maneuver chart data...
Computing Atmospheric mass density...
Loading historical data...
Loading historical data...
Loading historical data...
Loading historical data...
Loading historical data...
Loading historical data...
Loading historical data...

Documentation

Showing up to 5 results
|